Tracking 19562 objects as of 22-Mar-2019
HD Live streaming from Space Station
objects crossing your sky now

MOST

Track MOST now!
10-day predictions
MOST is classified as:


NORAD ID: 27843
Int'l Code: 2003-031D
Perigee: 823.8 km
Apogee: 837.2 km
Inclination: 98.7 °
Period: 101.4 minutes
Semi major axis: 7201 km
RCS: 0.317 m2 (medium)
Launch date: June 30, 2003
Source: Canada (CA)
Launch site: PLESETSK MISSILE AND SPACE COMPLEX (PKMTR)

Canada's space telescope, dubbed the "Humble Telescope"; minisatellite; monitor brightness variations in stars.
aabbcc
Your satellite tracking list
Your tracking list is empty




NASA's NSSDC Master Catalog

Two Line Element Set (TLE):
1 27843U 03031D   19080.96770906 -.00000017 +00000-0 +12422-4 0  9997
2 27843 098.7133 089.8532 0009346 326.9871 033.0721 14.20586195815214
Source of the keplerian elements: AFSPC